Карточка аэропорта USPP

Внимание!
Информация на этой странице в стадии наполнения.
Если вы не увидели какой-то информации, или заметили неточность - пожалуйста сообщите нам!
Спасибо!
Команда RU-STAFF
Название аэропортаБольшое Савино
Название аэропорта (англ.)Bolshoe Savino
Превышение404 ft. (123.1 m.)
Координаты57°55.866', 56°1.6019999999999'
Высота перехода3700ft
Эшелон переходаQNH>1013:FL50; 1013>QNH>977:FL60; 977>QNH:FL70;
Коды ответчика5610-5617
Зона ОрВДЕкатеринбург РПИ (USSV)
Данные METARUSPP 230630Z 32004MPS 270V360 CAVOK 06/M08 Q1025 R21/090060 NOSIG RMK QFE758
Проноз погоды (TAF)USPP 230457Z 2306/2406 34003G13MPS 9999 SCT040 TEMPO 2306/2315 30003G15MPS BKN030CB
NOTAMshow/hide NOTAM
AWOS   TABLE

Информация о ВПП

ВПП Длина ВПП (м.) Покрытие Курс ВПП Частота ILS
033204Железобетон31 
213204Железобетон211109.9

Диспетчерские позиции

Позывной Наименование органа УВД Частота
USPP_TWRПермь-Старт124.000
USPP_APPПермь-Подход127.100
USPP_R_APPПермь-Круг121.700



Спутниковое изображение